Home   Weather   Derby   Past weeks
Flag for United Kingdom

Past Weather in Derby, England, United Kingdom — Yesterday and Last 2 Weeks

Now
63 °F

Light rain. Passing clouds.


Feels Like: 63 °F
Forecast: 66 / 57 °F
Wind: 10 mph from Southwest

Location: East Midlands

Current Time: Jul 19, 2019 at 9:58:20 pm

Latest Report: Jul 19, 2019 at 9:20 pm


Visibility: N/A

Pressure: 29.71 "Hg

Humidity: 94%

Dew Point: 61 °F

Location of DerbyLocation

Past Weather in Derby — Graph

°F

Derby Temperature Yesterday

Maximum temperature yesterday: 70 °F (at 1:50 pm)
Minimum temperature yesterday: 59 °F (at 2:50 am)
Average temperature yesterday: 63 °F

High & Low Weather Summary for the Past Weeks

 TemperatureHumidityPressure
High75 °F (Jul 16, 12:50 pm)100% (Jul 6, 1:20 pm)30.27 "Hg (Jul 6, 1:20 pm)
Low50 °F (Jul 8, 4:20 am)43% (Jul 7, 3:50 pm)29.71 "Hg (Jul 19, 4:50 pm)
Average62 °F78%30.03 "Hg
* Reported Jul 4 8:20 pm — Jul 19 8:20 pm, Derby. Weather by CustomWeather, © 2019

Note: Actual official high and low records may vary slightly from our data, if they occured in-between our weather recording intervals... More about our weather records

Advertising

Derby Weather History for the Previous 24 Hours

Scroll right to see more
 ConditionsComfort  
Time TempWeatherWind HumidityBarometerVisibility
8:20 pm
Fri, Jul 19
64 °FLight rain. Scattered clouds.14 mph94%29.71 "HgN/A
7:50 pm64 °FLight rain. Scattered clouds.13 mph94%29.71 "HgN/A
7:20 pm64 °FLight rain. Scattered clouds.14 mph94%29.71 "HgN/A
6:50 pm64 °FLight rain. Scattered clouds.15 mph94%29.71 "HgN/A
6:20 pm66 °FScattered clouds.15 mph94%29.71 "HgN/A
5:50 pm66 °FBroken clouds.15 mph94%29.71 "HgN/A
5:20 pm66 °FBroken clouds.16 mph94%29.71 "HgN/A
4:50 pm68 °FBroken clouds.17 mph83%29.71 "HgN/A
3:20 pm64 °FPartly sunny.16 mph88%29.74 "HgN/A
2:50 pm63 °FPartly sunny.17 mph94%29.74 "HgN/A
2:20 pm63 °FScattered showers. Partly sunny.15 mph88%29.74 "HgN/A
1:50 pm63 °FPartly sunny.15 mph88%29.77 "HgN/A
1:20 pm63 °FPartly sunny.16 mph88%29.77 "HgN/A
12:50 pm61 °FPartly sunny.13 mph94%29.77 "HgN/A
12:20 pm59 °FDrizzle. Partly sunny.12 mph94%29.77 "Hg5 mi
11:50 am59 °FRain. Partly sunny.10 mph94%29.80 "Hg3 mi
11:20 am57 °FRain. Partly sunny.15 mph100%29.80 "Hg4 mi
10:50 am59 °FRain. Partly sunny.14 mph94%29.80 "Hg3 mi
10:20 am61 °FPartly sunny.13 mph83%29.80 "HgN/A
9:50 am61 °FPassing clouds.13 mph77%29.83 "HgN/A
9:20 am61 °FPassing clouds.13 mph83%29.83 "HgN/A
8:50 am59 °FPassing clouds.12 mph88%29.83 "HgN/A
8:20 am59 °FPartly sunny.9 mph82%29.86 "HgN/A
7:50 am59 °FPassing clouds.9 mph82%29.83 "HgN/A
7:20 am57 °FPassing clouds.7 mph88%29.83 "HgN/A
6:50 am57 °FPartly sunny.6 mph88%29.83 "HgN/A
6:20 am55 °FSunny.8 mph88%29.83 "Hg10 mi
5:50 am55 °FSunny.7 mph88%29.83 "Hg10 mi
5:20 am54 °FSunny.8 mph94%29.86 "Hg10 mi
4:50 am54 °FClear.9 mph94%29.86 "Hg10 mi
4:20 am54 °FClear.7 mph88%29.86 "Hg10 mi
3:50 am55 °FClear.7 mph82%29.83 "Hg10 mi
3:20 am55 °FClear.7 mph82%29.86 "Hg10 mi
2:50 am55 °FClear.7 mph82%29.86 "Hg10 mi
2:20 am57 °FClear.8 mph77%29.86 "Hg10 mi
1:50 am57 °FClear.12 mph77%29.86 "Hg10 mi
1:20 am57 °FClear.12 mph77%29.86 "Hg10 mi
12:50 am57 °FClear.14 mph77%29.86 "Hg10 mi
12:20 am57 °FClear.10 mph82%29.86 "Hg10 mi
11:50 pm
Thu, Jul 18
59 °FClear.14 mph77%29.86 "Hg10 mi
11:20 pm59 °FClear.12 mph72%29.86 "Hg10 mi
10:50 pm59 °FClear.13 mph72%29.86 "Hg10 mi
10:20 pm59 °FClear.12 mph72%29.86 "Hg10 mi
9:50 pm59 °FClear.9 mph72%29.86 "Hg10 mi
9:20 pm61 °FClear.9 mph68%29.86 "Hg10 mi
Weather by CustomWeather, © 2019

See weather overview